Time,TemperatureF,DewpointF,PressureIn,WindDirection,WindDirectionDegrees,WindSpeedMPH,WindSpeedGustMPH,Humidity,HourlyPrecipIn,Conditions,Clouds,dailyrainin,SoftwareType,DateUTC
2013-02-08 00:02:00,26.1,21.0,30.37,East,98,7.0,7.0,81,0.00,,,0.00,meteohub,2013-02-08 06:02:00,
2013-02-08 00:07:00,26.1,21.0,30.37,East,88,0.0,7.0,81,0.00,,,0.00,meteohub,2013-02-08 06:07:00,
2013-02-08 00:12:00,26.1,21.0,30.38,East,94,5.0,9.0,81,0.00,,,0.00,meteohub,2013-02-08 06:12:00,
2013-02-08 00:17:00,25.9,20.8,30.38,East,94,1.0,9.0,81,0.00,,,0.00,meteohub,2013-02-08 06:17:00,
2013-02-08 00:22:00,25.9,20.8,30.38,East,94,1.0,9.0,81,0.00,,,0.00,meteohub,2013-02-08 06:22:00,
2013-02-08 00:27:00,25.9,20.8,30.38,East,92,2.0,5.0,81,0.00,,,0.00,meteohub,2013-02-08 06:27:00,
2013-02-08 00:32:00,25.9,20.8,30.39,East,93,4.0,5.0,81,0.00,,,0.00,meteohub,2013-02-08 06:32:00,
2013-02-08 00:37:00,25.9,20.8,30.40,East,88,3.0,5.0,81,0.00,,,0.00,meteohub,2013-02-08 06:37:00,
2013-02-08 00:42:00,25.9,20.8,30.40,East,88,1.0,6.0,81,0.00,,,0.00,meteohub,2013-02-08 06:42:00,
2013-02-08 00:47:00,25.7,20.7,30.39,East,88,3.0,6.0,81,0.00,,,0.00,meteohub,2013-02-08 06:47:00,
2013-02-08 00:52:00,25.7,20.7,30.40,East,88,5.0,6.0,81,0.00,,,0.00,meteohub,2013-02-08 06:52:00,
2013-02-08 00:57:00,25.7,20.7,30.40,East,88,2.0,6.0,81,0.00,,,0.00,meteohub,2013-02-08 06:57:00,
2013-02-08 01:02:00,25.5,20.5,30.40,East,88,2.0,6.0,81,0.00,,,0.00,meteohub,2013-02-08 07:02:00,
2013-02-08 01:07:00,25.5,20.5,30.40,East,87,1.0,6.0,81,0.00,,,0.00,meteohub,2013-02-08 07:07:00,
2013-02-08 01:12:00,25.5,20.5,30.40,East,87,4.0,6.0,81,0.00,,,0.00,meteohub,2013-02-08 07:12:00,
2013-02-08 01:17:00,25.5,20.5,30.40,East,88,1.0,6.0,81,0.00,,,0.00,meteohub,2013-02-08 07:17:00,
2013-02-08 01:22:00,25.5,20.5,30.40,East,88,1.0,5.0,81,0.00,,,0.00,meteohub,2013-02-08 07:22:00,
2013-02-08 01:27:00,25.5,20.5,30.40,East,88,0.0,5.0,81,0.00,,,0.00,meteohub,2013-02-08 07:27:00,
2013-02-08 01:32:00,25.3,20.3,30.41,East,88,4.0,5.0,81,0.00,,,0.00,meteohub,2013-02-08 07:32:00,
2013-02-08 01:37:00,25.3,20.7,30.41,East,88,4.0,5.0,82,0.00,,,0.00,meteohub,2013-02-08 07:37:00,
2013-02-08 01:42:00,25.3,20.7,30.41,East,88,2.0,4.0,82,0.00,,,0.00,meteohub,2013-02-08 07:42:00,
2013-02-08 01:47:00,25.3,20.7,30.41,East,87,1.0,4.0,82,0.00,,,0.00,meteohub,2013-02-08 07:47:00,
2013-02-08 01:52:00,25.3,20.3,30.42,East,88,0.0,5.0,81,0.00,,,0.00,meteohub,2013-02-08 07:52:00,
2013-02-08 01:57:00,25.2,20.1,30.42,East,87,4.0,5.0,81,0.00,,,0.00,meteohub,2013-02-08 07:57:00,
2013-02-08 02:02:00,25.2,20.5,30.42,East,87,5.0,6.0,82,0.00,,,0.00,meteohub,2013-02-08 08:02:00,
2013-02-08 02:07:00,25.2,20.1,30.41,East,88,4.0,6.0,81,0.00,,,0.00,meteohub,2013-02-08 08:07:00,
2013-02-08 02:12:00,25.2,20.5,30.41,East,86,2.0,7.0,82,0.00,,,0.00,meteohub,2013-02-08 08:12:00,
2013-02-08 02:17:00,25.2,20.5,30.41,East,87,0.0,7.0,82,0.00,,,0.00,meteohub,2013-02-08 08:17:00,
2013-02-08 02:22:00,25.2,20.5,30.41,East,87,0.0,7.0,82,0.00,,,0.00,meteohub,2013-02-08 08:22:00,
2013-02-08 02:27:00,25.2,20.5,30.41,East,87,1.0,5.0,82,0.00,,,0.00,meteohub,2013-02-08 08:27:00,
2013-02-08 02:32:00,25.0,20.3,30.42,East,86,0.0,6.0,82,0.00,,,0.00,meteohub,2013-02-08 08:32:00,
2013-02-08 02:37:00,25.0,20.3,30.42,East,86,0.0,6.0,82,0.00,,,0.00,meteohub,2013-02-08 08:37:00,
2013-02-08 02:42:00,25.0,20.3,30.42,East,86,2.0,6.0,82,0.00,,,0.00,meteohub,2013-02-08 08:42:00,
2013-02-08 02:47:00,25.0,20.3,30.41,East,86,0.0,4.0,82,0.00,,,0.00,meteohub,2013-02-08 08:47:00,
2013-02-08 02:52:00,24.8,20.1,30.41,East,86,2.0,4.0,82,0.00,,,0.00,meteohub,2013-02-08 08:52:00,
2013-02-08 02:57:00,24.8,20.1,30.41,East,86,3.0,4.0,82,0.00,,,0.00,meteohub,2013-02-08 08:57:00,
2013-02-08 03:02:00,24.8,20.1,30.41,East,86,1.0,5.0,82,0.00,,,0.00,meteohub,2013-02-08 09:02:00,
2013-02-08 03:07:00,24.8,20.1,30.41,East,86,0.0,5.0,82,0.00,,,0.00,meteohub,2013-02-08 09:07:00,
2013-02-08 03:12:00,24.8,20.1,30.41,East,86,0.0,5.0,82,0.00,,,0.00,meteohub,2013-02-08 09:12:00,
2013-02-08 03:17:00,24.8,20.1,30.41,East,86,0.0,4.0,82,0.00,,,0.00,meteohub,2013-02-08 09:17:00,
2013-02-08 03:22:00,24.8,20.1,30.40,East,86,0.0,2.0,82,0.00,,,0.00,meteohub,2013-02-08 09:22:00,
2013-02-08 03:27:00,24.8,20.1,30.40,East,86,0.0,2.0,82,0.00,,,0.00,meteohub,2013-02-08 09:27:00,
2013-02-08 03:32:00,24.6,19.9,30.41,East,86,0.0,2.0,82,0.00,,,0.00,meteohub,2013-02-08 09:32:00,
2013-02-08 03:37:00,24.6,19.9,30.41,East,86,0.0,1.0,82,0.00,,,0.00,meteohub,2013-02-08 09:37:00,
2013-02-08 03:42:00,24.6,19.9,30.41,East,86,0.0,2.0,82,0.00,,,0.00,meteohub,2013-02-08 09:42:00,
2013-02-08 03:47:00,24.6,19.9,30.42,East,86,0.0,2.0,82,0.00,,,0.00,meteohub,2013-02-08 09:47:00,
2013-02-08 03:52:00,24.6,19.9,30.41,East,86,0.0,0.0,82,0.00,,,0.00,meteohub,2013-02-08 09:52:00,
2013-02-08 03:57:00,24.6,19.9,30.41,East,86,0.0,2.0,82,0.00,,,0.00,meteohub,2013-02-08 09:57:00,
2013-02-08 04:02:00,24.6,19.9,30.41,East,89,0.0,2.0,82,0.00,,,0.00,meteohub,2013-02-08 10:02:00,
2013-02-08 04:07:00,24.6,19.6,30.41,East,89,0.0,5.0,81,0.00,,,0.00,meteohub,2013-02-08 10:07:00,
2013-02-08 04:12:00,24.6,19.6,30.41,East,90,1.0,5.0,81,0.00,,,0.00,meteohub,2013-02-08 10:12:00,
2013-02-08 04:17:00,24.6,19.4,30.41,East,90,0.0,3.0,80,0.00,,,0.00,meteohub,2013-02-08 10:17:00,
2013-02-08 04:22:00,24.6,19.0,30.41,East,90,1.0,3.0,79,0.00,,,0.00,meteohub,2013-02-08 10:22:00,
2013-02-08 04:27:00,24.6,18.7,30.42,East,91,1.0,3.0,78,0.00,,,0.00,meteohub,2013-02-08 10:27:00,
2013-02-08 04:32:00,24.4,18.0,30.42,East,91,0.0,4.0,76,0.00,,,0.00,meteohub,2013-02-08 10:32:00,
2013-02-08 04:37:00,24.3,17.8,30.43,East,91,0.0,4.0,76,0.00,,,0.00,meteohub,2013-02-08 10:37:00,
2013-02-08 04:43:00,24.1,17.2,30.43,East,91,0.0,3.0,75,0.00,,,0.00,meteohub,2013-02-08 10:43:00,
2013-02-08 04:48:00,23.9,17.1,30.43,East,91,0.0,4.0,75,0.00,,,0.00,meteohub,2013-02-08 10:48:00,
2013-02-08 04:53:00,23.5,16.7,30.43,East,91,0.0,4.0,75,0.00,,,0.00,meteohub,2013-02-08 10:53:00,
2013-02-08 04:58:00,23.4,16.7,30.44,East,91,0.0,3.0,75,0.00,,,0.00,meteohub,2013-02-08 10:58:00,
2013-02-08 05:03:00,23.2,16.5,30.44,East,91,0.0,2.0,75,0.00,,,0.00,meteohub,2013-02-08 11:03:00,
2013-02-08 05:08:00,22.8,16.2,30.44,East,91,4.0,4.0,75,0.00,,,0.00,meteohub,2013-02-08 11:08:00,
2013-02-08 05:13:00,22.6,16.2,30.45,East,91,0.0,4.0,76,0.00,,,0.00,meteohub,2013-02-08 11:13:00,
2013-02-08 05:18:00,22.5,16.0,30.45,East,91,0.0,4.0,76,0.00,,,0.00,meteohub,2013-02-08 11:18:00,
2013-02-08 05:23:00,22.5,16.0,30.45,East,91,3.0,4.0,76,0.00,,,0.00,meteohub,2013-02-08 11:23:00,
2013-02-08 05:28:00,22.5,16.0,30.44,East,91,1.0,3.0,76,0.00,,,0.00,meteohub,2013-02-08 11:28:00,
2013-02-08 05:33:00,22.5,16.0,30.44,East,91,0.0,4.0,76,0.00,,,0.00,meteohub,2013-02-08 11:33:00,
2013-02-08 05:38:00,22.5,16.0,30.44,East,91,5.0,5.0,76,0.00,,,0.00,meteohub,2013-02-08 11:38:00,
2013-02-08 05:43:00,22.5,16.0,30.45,East,91,0.0,4.0,76,0.00,,,0.00,meteohub,2013-02-08 11:43:00,
2013-02-08 05:48:00,22.5,16.0,30.45,East,91,0.0,6.0,76,0.00,,,0.00,meteohub,2013-02-08 11:48:00,
2013-02-08 05:53:00,22.5,16.0,30.45,East,91,0.0,6.0,76,0.00,,,0.00,meteohub,2013-02-08 11:53:00,
2013-02-08 05:58:00,22.3,15.8,30.45,East,91,0.0,3.0,76,0.00,,,0.00,meteohub,2013-02-08 11:58:00,
2013-02-08 06:03:00,22.1,15.6,30.45,East,91,0.0,0.0,76,0.00,,,0.00,meteohub,2013-02-08 12:03:00,
2013-02-08 06:08:00,21.9,15.4,30.45,East,91,0.0,0.0,76,0.00,,,0.00,meteohub,2013-02-08 12:08:00,
2013-02-08 06:13:00,21.9,15.4,30.45,East,91,0.0,0.0,76,0.00,,,0.00,meteohub,2013-02-08 12:13:00,
2013-02-08 06:18:00,21.7,15.6,30.45,East,91,0.0,0.0,77,0.00,,,0.00,meteohub,2013-02-08 12:18:00,
2013-02-08 06:23:00,21.7,15.6,30.46,East,91,0.0,0.0,77,0.00,,,0.00,meteohub,2013-02-08 12:23:00,
2013-02-08 06:28:00,21.6,15.4,30.46,East,91,1.0,1.0,77,0.00,,,0.00,meteohub,2013-02-08 12:28:00,
2013-02-08 06:33:00,21.4,15.3,30.46,East,91,1.0,4.0,77,0.00,,,0.00,meteohub,2013-02-08 12:33:00,
2013-02-08 06:38:00,21.4,15.3,30.46,East,91,0.0,4.0,77,0.00,,,0.00,meteohub,2013-02-08 12:38:00,
2013-02-08 06:43:00,21.2,15.4,30.46,East,91,0.0,4.0,78,0.00,,,0.00,meteohub,2013-02-08 12:43:00,
2013-02-08 06:48:00,21.0,15.3,30.47,East,91,0.0,2.0,78,0.00,,,0.00,meteohub,2013-02-08 12:48:00,
2013-02-08 06:53:00,21.0,15.3,30.46,East,91,0.0,2.0,78,0.00,,,0.00,meteohub,2013-02-08 12:53:00,
2013-02-08 06:58:00,21.0,15.3,30.47,East,91,0.0,0.0,78,0.00,,,0.00,meteohub,2013-02-08 12:58:00,
2013-02-08 07:03:00,21.0,15.6,30.47,East,91,0.0,0.0,79,0.00,,,0.00,meteohub,2013-02-08 13:03:00,
2013-02-08 07:08:00,21.0,15.3,30.47,East,91,0.0,0.0,78,0.00,,,0.00,meteohub,2013-02-08 13:08:00,
2013-02-08 07:13:00,21.0,15.6,30.46,East,91,0.0,0.0,79,0.00,,,0.00,meteohub,2013-02-08 13:13:00,
2013-02-08 07:18:00,21.2,15.8,30.46,East,91,1.0,0.0,79,0.00,,,0.00,meteohub,2013-02-08 13:18:00,
2013-02-08 07:23:00,21.4,15.8,30.46,East,91,0.0,2.0,79,0.00,,,0.00,meteohub,2013-02-08 13:23:00,
2013-02-08 07:28:00,21.6,16.0,30.47,East,91,0.0,2.0,79,0.00,,,0.00,meteohub,2013-02-08 13:28:00,
2013-02-08 07:33:00,21.6,16.0,30.47,East,91,0.0,2.0,79,0.00,,,0.00,meteohub,2013-02-08 13:33:00,
2013-02-08 07:38:00,21.7,16.2,30.47,East,91,0.0,2.0,79,0.00,,,0.00,meteohub,2013-02-08 13:38:00,
2013-02-08 07:43:00,21.7,16.2,30.47,East,91,0.0,2.0,79,0.00,,,0.00,meteohub,2013-02-08 13:43:00,
2013-02-08 07:48:00,21.7,16.2,30.47,East,91,0.0,2.0,79,0.00,,,0.00,meteohub,2013-02-08 13:48:00,
2013-02-08 07:53:00,21.7,16.2,30.47,East,91,0.0,2.0,79,0.00,,,0.00,meteohub,2013-02-08 13:53:00,
2013-02-08 07:58:00,21.7,16.2,30.47,East,91,0.0,2.0,79,0.00,,,0.00,meteohub,2013-02-08 13:58:00,
2013-02-08 08:03:00,21.7,16.2,30.47,East,91,3.0,4.0,79,0.00,,,0.00,meteohub,2013-02-08 14:03:00,
2013-02-08 08:08:00,21.9,16.3,30.47,East,91,0.0,4.0,79,0.00,,,0.00,meteohub,2013-02-08 14:08:00,
2013-02-08 08:13:00,21.9,16.3,30.47,East,96,0.0,4.0,79,0.00,,,0.00,meteohub,2013-02-08 14:13:00,
2013-02-08 08:18:00,21.9,16.3,30.47,East,96,0.0,4.0,79,0.00,,,0.00,meteohub,2013-02-08 14:18:00,
2013-02-08 08:24:00,22.3,16.7,30.47,East,96,0.0,4.0,79,0.00,,,0.00,meteohub,2013-02-08 14:24:00,
2013-02-08 08:29:00,22.3,16.7,30.47,East,96,0.0,3.0,79,0.00,,,0.00,meteohub,2013-02-08 14:29:00,
2013-02-08 08:34:00,22.5,16.9,30.48,East,96,0.0,3.0,79,0.00,,,0.00,meteohub,2013-02-08 14:34:00,
2013-02-08 08:39:00,22.5,16.9,30.48,East,96,0.0,3.0,79,0.00,,,0.00,meteohub,2013-02-08 14:39:00,
2013-02-08 08:44:00,22.6,17.1,30.48,East,96,0.0,2.0,79,0.00,,,0.00,meteohub,2013-02-08 14:44:00,
2013-02-08 08:49:00,22.8,17.2,30.49,East,96,0.0,2.0,79,0.00,,,0.00,meteohub,2013-02-08 14:49:00,
2013-02-08 08:54:00,23.2,17.6,30.49,East,96,1.0,2.0,79,0.00,,,0.00,meteohub,2013-02-08 14:54:00,
2013-02-08 08:59:00,23.2,17.6,30.48,East,96,1.0,2.0,79,0.00,,,0.00,meteohub,2013-02-08 14:59:00,
2013-02-08 09:04:00,23.4,17.8,30.48,East,96,0.0,2.0,79,0.00,,,0.00,meteohub,2013-02-08 15:04:00,
2013-02-08 09:09:00,23.4,17.8,30.49,East,96,1.0,2.0,79,0.00,,,0.00,meteohub,2013-02-08 15:09:00,
2013-02-08 09:14:00,23.5,18.0,30.49,East,99,0.0,4.0,79,0.00,,,0.00,meteohub,2013-02-08 15:14:00,
2013-02-08 09:19:00,23.5,18.0,30.49,East,99,0.0,4.0,79,0.00,,,0.00,meteohub,2013-02-08 15:19:00,
2013-02-08 09:24:00,23.7,18.1,30.49,East,99,0.0,4.0,79,0.00,,,0.00,meteohub,2013-02-08 15:24:00,
2013-02-08 09:29:00,23.7,18.1,30.49,East,99,0.0,3.0,79,0.00,,,0.00,meteohub,2013-02-08 15:29:00,
2013-02-08 09:34:00,24.1,18.5,30.48,East,99,0.0,4.0,79,0.00,,,0.00,meteohub,2013-02-08 15:34:00,
2013-02-08 09:39:00,24.1,18.5,30.48,East,99,0.0,4.0,79,0.00,,,0.00,meteohub,2013-02-08 15:39:00,
2013-02-08 09:44:00,24.3,18.3,30.49,East,101,1.0,4.0,78,0.00,,,0.00,meteohub,2013-02-08 15:44:00,
2013-02-08 09:49:00,24.3,18.3,30.49,East,101,0.0,3.0,78,0.00,,,0.00,meteohub,2013-02-08 15:49:00,
2013-02-08 09:54:00,24.3,18.3,30.49,South,184,3.0,4.0,78,0.00,,,0.00,meteohub,2013-02-08 15:54:00,
2013-02-08 09:59:00,24.3,18.3,30.49,South,183,1.0,6.0,78,0.00,,,0.00,meteohub,2013-02-08 15:59:00,
2013-02-08 10:04:00,24.4,18.5,30.49,South,183,2.0,7.0,78,0.00,,,0.00,meteohub,2013-02-08 16:04:00,
2013-02-08 10:09:00,24.3,18.1,30.50,South,186,1.0,7.0,77,0.00,,,0.00,meteohub,2013-02-08 16:09:00,
2013-02-08 10:14:00,24.3,18.3,30.50,SW,217,5.0,6.0,78,0.00,,,0.00,meteohub,2013-02-08 16:14:00,
2013-02-08 10:19:00,24.3,18.1,30.49,SSW,213,1.0,6.0,77,0.00,,,0.00,meteohub,2013-02-08 16:19:00,
2013-02-08 10:24:00,24.4,18.3,30.49,SSW,203,1.0,6.0,77,0.00,,,0.00,meteohub,2013-02-08 16:24:00,
2013-02-08 10:29:00,24.3,18.1,30.50,SSW,205,0.0,7.0,77,0.00,,,0.00,meteohub,2013-02-08 16:29:00,
2013-02-08 10:34:00,24.4,18.5,30.50,SSW,205,2.0,7.0,78,0.00,,,0.00,meteohub,2013-02-08 16:34:00,
2013-02-08 10:39:00,24.6,18.7,30.50,SSW,206,1.0,7.0,78,0.00,,,0.00,meteohub,2013-02-08 16:39:00,
2013-02-08 10:44:00,24.6,18.5,30.50,SW,235,2.0,7.0,77,0.00,,,0.00,meteohub,2013-02-08 16:44:00,
2013-02-08 10:49:00,24.6,18.5,30.50,SW,233,3.0,6.0,77,0.00,,,0.00,meteohub,2013-02-08 16:49:00,
2013-02-08 10:54:00,24.6,18.5,30.49,SSW,202,2.0,9.0,77,0.00,,,0.00,meteohub,2013-02-08 16:54:00,
2013-02-08 10:59:00,24.6,18.5,30.49,SW,234,2.0,11.0,77,0.00,,,0.00,meteohub,2013-02-08 16:59:00,
2013-02-08 11:04:00,24.6,18.5,30.49,SSW,195,3.0,11.0,77,0.00,,,0.00,meteohub,2013-02-08 17:04:00,
2013-02-08 11:09:00,24.8,18.7,30.49,SW,223,2.0,12.0,77,0.00,,,0.00,meteohub,2013-02-08 17:09:00,
2013-02-08 11:14:00,25.0,18.9,30.49,SSW,196,2.0,12.0,77,0.00,,,0.00,meteohub,2013-02-08 17:14:00,
2013-02-08 11:19:00,25.2,19.0,30.49,South,180,6.0,12.0,77,0.00,,,0.00,meteohub,2013-02-08 17:19:00,
2013-02-08 11:24:00,25.0,18.5,30.49,SSW,207,1.0,9.0,76,0.00,,,0.00,meteohub,2013-02-08 17:24:00,
2013-02-08 11:29:00,24.8,18.7,30.49,WSW,248,5.0,9.0,77,0.00,,,0.00,meteohub,2013-02-08 17:29:00,
2013-02-08 11:34:00,24.8,18.7,30.49,SSW,200,1.0,9.0,77,0.00,,,0.00,meteohub,2013-02-08 17:34:00,
2013-02-08 11:39:00,24.8,18.7,30.49,SSW,193,1.0,7.0,77,0.00,,,0.00,meteohub,2013-02-08 17:39:00,
2013-02-08 11:44:00,24.8,18.7,30.49,SW,215,3.0,7.0,77,0.00,,,0.00,meteohub,2013-02-08 17:44:00,
2013-02-08 11:49:00,25.0,18.9,30.49,SSW,200,6.0,9.0,77,0.00,,,0.00,meteohub,2013-02-08 17:49:00,
2013-02-08 11:55:00,25.0,18.9,30.49,SSW,200,3.0,10.0,77,0.00,,,0.00,meteohub,2013-02-08 17:55:00,
2013-02-08 12:00:00,25.0,18.9,30.49,South,190,4.0,10.0,77,0.00,,,0.00,meteohub,2013-02-08 18:00:00,
2013-02-08 12:05:00,25.0,18.9,30.49,SSW,206,6.0,10.0,77,0.00,,,0.00,meteohub,2013-02-08 18:05:00,
2013-02-08 12:10:00,25.0,18.9,30.48,WSW,237,4.0,9.0,77,0.00,,,0.00,meteohub,2013-02-08 18:10:00,
2013-02-08 12:15:00,25.0,18.9,30.48,South,190,3.0,9.0,77,0.00,,,0.00,meteohub,2013-02-08 18:15:00,
2013-02-08 12:20:00,25.2,19.0,30.48,South,189,4.0,9.0,77,0.00,,,0.00,meteohub,2013-02-08 18:20:00,
2013-02-08 12:25:00,25.2,18.7,30.48,SSW,212,2.0,9.0,76,0.00,,,0.00,meteohub,2013-02-08 18:25:00,
2013-02-08 12:30:00,25.2,18.7,30.48,WSW,244,7.0,9.0,76,0.00,,,0.00,meteohub,2013-02-08 18:30:00,
2013-02-08 12:35:00,25.2,18.7,30.48,SW,215,4.0,9.0,76,0.00,,,0.00,meteohub,2013-02-08 18:35:00,
2013-02-08 12:40:00,25.2,18.7,30.49,SW,236,4.0,8.0,76,0.00,,,0.00,meteohub,2013-02-08 18:40:00,
2013-02-08 12:45:00,25.2,18.7,30.49,WSW,241,4.0,11.0,76,0.00,,,0.00,meteohub,2013-02-08 18:45:00,
2013-02-08 12:50:00,25.2,18.7,30.48,WSW,241,3.0,11.0,76,0.00,,,0.00,meteohub,2013-02-08 18:50:00,
2013-02-08 12:55:00,25.2,18.7,30.48,WSW,242,3.0,11.0,76,0.00,,,0.00,meteohub,2013-02-08 18:55:00,
2013-02-08 13:00:00,25.3,18.9,30.48,SW,226,1.0,7.0,76,0.00,,,0.00,meteohub,2013-02-08 19:00:00,
2013-02-08 13:05:00,25.5,19.0,30.48,SSW,213,1.0,7.0,76,0.00,,,0.00,meteohub,2013-02-08 19:05:00,
2013-02-08 13:11:00,25.7,18.9,30.47,WSW,254,2.0,10.0,75,0.00,,,0.00,meteohub,2013-02-08 19:11:00,
2013-02-08 13:16:00,25.9,19.0,30.47,WSW,240,0.0,10.0,75,0.00,,,0.00,meteohub,2013-02-08 19:16:00,
2013-02-08 13:21:00,25.9,19.0,30.47,SW,232,2.0,10.0,75,0.00,,,0.00,meteohub,2013-02-08 19:21:00,
2013-02-08 13:26:00,26.1,19.2,30.46,WSW,242,2.0,7.0,75,0.00,,,0.00,meteohub,2013-02-08 19:26:00,
2013-02-08 13:31:00,26.1,18.9,30.46,SW,229,4.0,7.0,74,0.00,,,0.00,meteohub,2013-02-08 19:31:00,
2013-02-08 13:36:00,25.9,18.7,30.46,SSW,198,3.0,7.0,74,0.00,,,0.00,meteohub,2013-02-08 19:36:00,
2013-02-08 13:41:00,26.1,19.2,30.46,SSW,199,0.0,7.0,75,0.00,,,0.00,meteohub,2013-02-08 19:41:00,
2013-02-08 13:46:00,26.2,19.4,30.45,SSW,200,4.0,7.0,75,0.00,,,0.00,meteohub,2013-02-08 19:46:00,
2013-02-08 13:51:00,26.2,19.0,30.45,SSW,193,3.0,5.0,74,0.00,,,0.00,meteohub,2013-02-08 19:51:00,
2013-02-08 13:56:00,26.1,18.9,30.45,SSW,198,0.0,9.0,74,0.00,,,0.00,meteohub,2013-02-08 19:56:00,
2013-02-08 14:01:00,26.2,19.4,30.45,SSW,198,4.0,9.0,75,0.00,,,0.00,meteohub,2013-02-08 20:01:00,
2013-02-08 14:06:00,26.2,19.0,30.45,SSW,203,5.0,9.0,74,0.00,,,0.00,meteohub,2013-02-08 20:06:00,
2013-02-08 14:11:00,26.1,18.9,30.44,WSW,248,10.0,11.0,74,0.00,,,0.00,meteohub,2013-02-08 20:11:00,
2013-02-08 14:16:00,25.9,18.7,30.44,SSW,213,0.0,12.0,74,0.00,,,0.00,meteohub,2013-02-08 20:16:00,
2013-02-08 14:21:00,25.9,19.0,30.44,SSW,207,5.0,12.0,75,0.00,,,0.00,meteohub,2013-02-08 20:21:00,
2013-02-08 14:26:00,26.1,19.2,30.44,SW,232,2.0,12.0,75,0.00,,,0.00,meteohub,2013-02-08 20:26:00,
2013-02-08 14:31:00,25.9,18.7,30.44,SW,232,2.0,9.0,74,0.00,,,0.00,meteohub,2013-02-08 20:31:00,
2013-02-08 14:36:00,25.7,18.5,30.44,SSW,207,3.0,9.0,74,0.00,,,0.00,meteohub,2013-02-08 20:36:00,
2013-02-08 14:41:00,25.7,18.9,30.44,SSW,207,1.0,10.0,75,0.00,,,0.00,meteohub,2013-02-08 20:41:00,
2013-02-08 14:46:00,25.7,18.9,30.44,SSW,203,0.0,10.0,75,0.00,,,0.00,meteohub,2013-02-08 20:46:00,
2013-02-08 14:51:00,25.5,18.7,30.44,SSW,197,9.0,9.0,75,0.00,,,0.00,meteohub,2013-02-08 20:51:00,
2013-02-08 14:56:00,25.7,18.9,30.44,SW,230,4.0,11.0,75,0.00,,,0.00,meteohub,2013-02-08 20:56:00,
2013-02-08 15:01:00,25.5,18.7,30.43,WSW,242,4.0,11.0,75,0.00,,,0.00,meteohub,2013-02-08 21:01:00,
2013-02-08 15:06:00,25.3,18.5,30.44,WSW,243,2.0,10.0,75,0.00,,,0.00,meteohub,2013-02-08 21:06:00,
2013-02-08 15:11:00,25.5,18.7,30.44,WSW,254,7.0,10.0,75,0.00,,,0.00,meteohub,2013-02-08 21:11:00,
2013-02-08 15:16:00,25.3,18.9,30.44,SW,234,3.0,10.0,76,0.00,,,0.00,meteohub,2013-02-08 21:16:00,
2013-02-08 15:21:00,25.5,19.0,30.44,SW,222,5.0,9.0,76,0.00,,,0.00,meteohub,2013-02-08 21:21:00,
2013-02-08 15:26:00,25.5,19.0,30.44,SW,230,4.0,9.0,76,0.00,,,0.00,meteohub,2013-02-08 21:26:00,
2013-02-08 15:31:00,25.5,19.0,30.44,WSW,245,6.0,8.0,76,0.00,,,0.00,meteohub,2013-02-08 21:31:00,
2013-02-08 15:36:00,25.3,18.9,30.44,WSW,241,3.0,9.0,76,0.00,,,0.00,meteohub,2013-02-08 21:36:00,
2013-02-08 15:41:00,25.3,18.9,30.44,WSW,240,3.0,9.0,76,0.00,,,0.00,meteohub,2013-02-08 21:41:00,
2013-02-08 15:46:00,25.5,19.0,30.44,SW,225,1.0,10.0,76,0.00,,,0.00,meteohub,2013-02-08 21:46:00,
2013-02-08 15:51:00,25.3,18.9,30.43,SSW,210,2.0,10.0,76,0.00,,,0.00,meteohub,2013-02-08 21:51:00,
2013-02-08 15:56:00,25.3,18.9,30.43,SW,222,1.0,9.0,76,0.00,,,0.00,meteohub,2013-02-08 21:56:00,
2013-02-08 16:01:00,25.3,18.9,30.43,SW,223,3.0,9.0,76,0.00,,,0.00,meteohub,2013-02-08 22:01:00,
2013-02-08 16:07:00,25.3,18.9,30.43,SSW,211,2.0,6.0,76,0.00,,,0.00,meteohub,2013-02-08 22:07:00,
2013-02-08 16:12:00,25.3,18.9,30.43,SSW,207,2.0,9.0,76,0.00,,,0.00,meteohub,2013-02-08 22:12:00,
2013-02-08 16:17:00,25.2,18.7,30.43,SSW,210,2.0,9.0,76,0.00,,,0.00,meteohub,2013-02-08 22:17:00,
2013-02-08 16:22:00,25.2,18.7,30.43,SSW,210,2.0,7.0,76,0.00,,,0.00,meteohub,2013-02-08 22:22:00,
2013-02-08 16:27:00,25.2,18.7,30.42,SSW,203,5.0,8.0,76,0.00,,,0.00,meteohub,2013-02-08 22:27:00,
2013-02-08 16:32:00,25.2,18.7,30.42,SSW,204,2.0,10.0,76,0.00,,,0.00,meteohub,2013-02-08 22:32:00,
2013-02-08 16:37:00,25.2,18.7,30.41,SW,216,3.0,10.0,76,0.00,,,0.00,meteohub,2013-02-08 22:37:00,
2013-02-08 16:42:00,25.2,19.0,30.41,SW,215,2.0,10.0,77,0.00,,,0.00,meteohub,2013-02-08 22:42:00,
2013-02-08 16:47:00,25.2,19.0,30.41,SSW,213,1.0,9.0,77,0.00,,,0.00,meteohub,2013-02-08 22:47:00,
2013-02-08 16:52:00,25.0,18.5,30.41,SSW,210,0.0,6.0,76,0.00,,,0.00,meteohub,2013-02-08 22:52:00,
2013-02-08 16:57:00,25.0,18.5,30.40,SSW,210,0.0,6.0,76,0.00,,,0.00,meteohub,2013-02-08 22:57:00,
2013-02-08 17:02:00,24.8,18.7,30.40,SSW,210,3.0,5.0,77,0.00,,,0.00,meteohub,2013-02-08 23:02:00,
2013-02-08 17:07:00,24.6,18.5,30.40,SSW,205,4.0,5.0,77,0.00,,,0.00,meteohub,2013-02-08 23:07:00,
2013-02-08 17:12:00,24.6,18.5,30.40,SSW,204,2.0,6.0,77,0.00,,,0.00,meteohub,2013-02-08 23:12:00,
2013-02-08 17:17:00,24.4,18.3,30.40,SSW,207,6.0,9.0,77,0.00,,,0.00,meteohub,2013-02-08 23:17:00,
2013-02-08 17:22:00,24.4,18.3,30.40,SSW,207,2.0,9.0,77,0.00,,,0.00,meteohub,2013-02-08 23:22:00,
2013-02-08 17:27:00,24.4,18.3,30.40,SSW,206,4.0,9.0,77,0.00,,,0.00,meteohub,2013-02-08 23:27:00,
2013-02-08 17:32:00,24.3,18.3,30.40,SSW,209,0.0,10.0,78,0.00,,,0.00,meteohub,2013-02-08 23:32:00,
2013-02-08 17:37:00,24.3,18.3,30.40,SSW,209,3.0,10.0,78,0.00,,,0.00,meteohub,2013-02-08 23:37:00,
2013-02-08 17:42:00,24.3,18.3,30.39,SSW,207,1.0,10.0,78,0.00,,,0.00,meteohub,2013-02-08 23:42:00,
2013-02-08 17:47:00,24.3,18.3,30.39,SSW,205,5.0,9.0,78,0.00,,,0.00,meteohub,2013-02-08 23:47:00,
2013-02-08 17:52:00,24.3,18.3,30.39,SSW,205,5.0,9.0,78,0.00,,,0.00,meteohub,2013-02-08 23:52:00,
2013-02-08 17:57:00,24.3,18.7,30.39,SSW,199,1.0,9.0,79,0.00,,,0.00,meteohub,2013-02-08 23:57:00,
2013-02-08 18:02:00,24.1,18.5,30.39,SSW,200,0.0,9.0,79,0.00,,,0.00,meteohub,2013-02-09 00:02:00,
2013-02-08 18:07:00,24.1,18.5,30.39,SSW,197,5.0,9.0,79,0.00,,,0.00,meteohub,2013-02-09 00:07:00,
2013-02-08 18:12:00,24.1,18.5,30.39,SSW,199,2.0,9.0,79,0.00,,,0.00,meteohub,2013-02-09 00:12:00,
2013-02-08 18:17:00,24.1,18.5,30.39,SSW,200,0.0,9.0,79,0.00,,,0.00,meteohub,2013-02-09 00:17:00,
2013-02-08 18:22:00,24.1,18.5,30.39,SSW,199,0.0,9.0,79,0.00,,,0.00,meteohub,2013-02-09 00:22:00,
2013-02-08 18:27:00,24.1,18.9,30.39,SSW,201,4.0,9.0,80,0.00,,,0.00,meteohub,2013-02-09 00:27:00,
2013-02-08 18:32:00,24.1,18.9,30.39,SSW,206,1.0,8.0,80,0.00,,,0.00,meteohub,2013-02-09 00:32:00,
2013-02-08 18:37:00,24.1,18.9,30.39,SSW,205,4.0,8.0,80,0.00,,,0.00,meteohub,2013-02-09 00:37:00,
2013-02-08 18:42:00,24.1,18.9,30.39,SSW,212,9.0,9.0,80,0.00,,,0.00,meteohub,2013-02-09 00:42:00,
2013-02-08 18:47:00,24.1,18.9,30.38,SSW,213,4.0,9.0,80,0.00,,,0.00,meteohub,2013-02-09 00:47:00,
2013-02-08 18:52:00,24.1,18.9,30.38,SSW,210,2.0,9.0,80,0.00,,,0.00,meteohub,2013-02-09 00:52:00,
2013-02-08 18:57:00,24.1,18.9,30.38,SSW,210,1.0,9.0,80,0.00,,,0.00,meteohub,2013-02-09 00:57:00,
2013-02-08 19:02:00,24.1,19.0,30.38,SSW,208,3.0,7.0,81,0.00,,,0.00,meteohub,2013-02-09 01:02:00,
2013-02-08 19:07:00,24.1,19.0,30.38,SSW,207,1.0,7.0,81,0.00,,,0.00,meteohub,2013-02-09 01:07:00,
2013-02-08 19:12:00,24.1,19.0,30.39,SSW,207,0.0,7.0,81,0.00,,,0.00,meteohub,2013-02-09 01:12:00,
2013-02-08 19:17:00,24.1,19.0,30.38,SSW,212,3.0,6.0,81,0.00,,,0.00,meteohub,2013-02-09 01:17:00,
2013-02-08 19:22:00,24.1,19.0,30.38,SSW,211,2.0,7.0,81,0.00,,,0.00,meteohub,2013-02-09 01:22:00,
2013-02-08 19:27:00,24.1,19.0,30.39,SW,219,3.0,9.0,81,0.00,,,0.00,meteohub,2013-02-09 01:27:00,
2013-02-08 19:32:00,24.3,19.2,30.39,SSW,198,4.0,9.0,81,0.00,,,0.00,meteohub,2013-02-09 01:32:00,
2013-02-08 19:37:00,24.3,19.2,30.39,SW,232,3.0,9.0,81,0.00,,,0.00,meteohub,2013-02-09 01:37:00,
2013-02-08 19:42:00,24.4,19.4,30.39,SW,222,2.0,9.0,81,0.00,,,0.00,meteohub,2013-02-09 01:42:00,
2013-02-08 19:47:00,24.4,19.4,30.38,SW,218,0.0,9.0,81,0.00,,,0.00,meteohub,2013-02-09 01:47:00,
2013-02-08 19:52:00,24.4,19.4,30.38,SW,218,3.0,6.0,81,0.00,,,0.00,meteohub,2013-02-09 01:52:00,
2013-02-08 19:57:00,24.4,19.4,30.38,SW,221,4.0,9.0,81,0.00,,,0.00,meteohub,2013-02-09 01:57:00,
2013-02-08 20:02:00,24.6,19.6,30.38,WSW,245,3.0,10.0,81,0.00,,,0.00,meteohub,2013-02-09 02:02:00,
2013-02-08 20:07:00,24.6,19.9,30.38,SW,230,4.0,10.0,82,0.00,,,0.00,meteohub,2013-02-09 02:07:00,
2013-02-08 20:12:00,24.8,20.1,30.38,SW,234,4.0,10.0,82,0.00,,,0.00,meteohub,2013-02-09 02:12:00,
2013-02-08 20:17:00,24.8,19.8,30.37,SW,217,1.0,12.0,81,0.00,,,0.00,meteohub,2013-02-09 02:17:00,
2013-02-08 20:22:00,24.8,19.8,30.37,WSW,243,2.0,12.0,81,0.00,,,0.00,meteohub,2013-02-09 02:22:00,
2013-02-08 20:27:00,25.0,20.3,30.37,WSW,244,4.0,12.0,82,0.00,,,0.00,meteohub,2013-02-09 02:27:00,
2013-02-08 20:32:00,25.0,19.9,30.37,SW,232,3.0,11.0,81,0.00,,,0.00,meteohub,2013-02-09 02:32:00,
2013-02-08 20:37:00,25.0,20.3,30.37,SW,232,2.0,10.0,82,0.00,,,0.00,meteohub,2013-02-09 02:37:00,
2013-02-08 20:42:00,25.0,20.3,30.36,SW,234,4.0,11.0,82,0.00,,,0.00,meteohub,2013-02-09 02:42:00,
2013-02-08 20:47:00,25.0,20.3,30.36,WSW,242,4.0,13.0,82,0.00,,,0.00,meteohub,2013-02-09 02:47:00,
2013-02-08 20:52:00,25.2,20.5,30.36,SW,229,4.0,13.0,82,0.00,,,0.00,meteohub,2013-02-09 02:52:00,
2013-02-08 20:57:00,25.2,20.5,30.36,WSW,244,9.0,13.0,82,0.00,,,0.00,meteohub,2013-02-09 02:57:00,
2013-02-08 21:02:00,25.2,20.5,30.36,WSW,245,10.0,11.0,82,0.00,,,0.00,meteohub,2013-02-09 03:02:00,
2013-02-08 21:07:00,25.2,20.5,30.36,WSW,237,2.0,11.0,82,0.00,,,0.00,meteohub,2013-02-09 03:07:00,
2013-02-08 21:12:00,25.2,20.5,30.35,SW,225,6.0,11.0,82,0.00,,,0.00,meteohub,2013-02-09 03:12:00,
2013-02-08 21:17:00,25.2,20.5,30.35,SW,225,4.0,11.0,82,0.00,,,0.00,meteohub,2013-02-09 03:17:00,
2013-02-08 21:22:00,25.2,20.5,30.35,SW,233,3.0,9.0,82,0.00,,,0.00,meteohub,2013-02-09 03:22:00,
2013-02-08 21:27:00,25.3,20.7,30.35,WSW,254,9.0,14.0,82,0.00,,,0.00,meteohub,2013-02-09 03:27:00,
2013-02-08 21:32:00,25.5,20.8,30.35,WSW,243,3.0,14.0,82,0.00,,,0.00,meteohub,2013-02-09 03:32:00,
2013-02-08 21:37:00,25.5,20.8,30.35,WSW,244,3.0,14.0,82,0.00,,,0.00,meteohub,2013-02-09 03:37:00,
2013-02-08 21:42:00,25.5,20.8,30.35,SW,232,4.0,13.0,82,0.00,,,0.00,meteohub,2013-02-09 03:42:00,
2013-02-08 21:47:00,25.7,21.0,30.36,WSW,247,8.0,10.0,82,0.00,,,0.00,meteohub,2013-02-09 03:47:00,
2013-02-08 21:52:00,25.9,21.2,30.36,WSW,239,5.0,10.0,82,0.00,,,0.00,meteohub,2013-02-09 03:52:00,
2013-02-08 21:57:00,25.9,21.2,30.36,WSW,244,10.0,10.0,82,0.00,,,0.00,meteohub,2013-02-09 03:57:00,
2013-02-08 22:02:00,26.1,21.4,30.35,SW,225,10.0,11.0,82,0.00,,,0.00,meteohub,2013-02-09 04:02:00,
2013-02-08 22:07:00,26.2,21.6,30.35,SW,234,5.0,13.0,82,0.00,,,0.00,meteohub,2013-02-09 04:07:00,
2013-02-08 22:12:00,26.2,21.6,30.35,WSW,246,6.0,13.0,82,0.00,,,0.00,meteohub,2013-02-09 04:12:00,
2013-02-08 22:17:00,26.2,21.6,30.35,SW,236,4.0,13.0,82,0.00,,,0.00,meteohub,2013-02-09 04:17:00,
2013-02-08 22:22:00,26.4,21.4,30.35,West,263,9.0,14.0,81,0.00,,,0.00,meteohub,2013-02-09 04:22:00,
2013-02-08 22:27:00,26.4,21.4,30.35,West,278,10.0,18.0,81,0.00,,,0.00,meteohub,2013-02-09 04:27:00,
2013-02-08 22:32:00,26.4,21.4,30.35,SW,227,7.0,18.0,81,0.00,,,0.00,meteohub,2013-02-09 04:32:00,
2013-02-08 22:37:00,26.4,21.4,30.35,WSW,247,5.0,16.0,81,0.00,,,0.00,meteohub,2013-02-09 04:37:00,
2013-02-08 22:42:00,26.4,21.4,30.35,WSW,246,10.0,16.0,81,0.00,,,0.00,meteohub,2013-02-09 04:42:00,
2013-02-08 22:47:00,26.4,21.4,30.35,SW,233,5.0,14.0,81,0.00,,,0.00,meteohub,2013-02-09 04:47:00,
2013-02-08 22:52:00,26.4,21.4,30.35,WSW,238,6.0,14.0,81,0.00,,,0.00,meteohub,2013-02-09 04:52:00,
2013-02-08 22:57:00,26.4,21.4,30.35,SW,232,8.0,14.0,81,0.00,,,0.00,meteohub,2013-02-09 04:57:00,
2013-02-08 23:00:00,26.4,21.7,30.35,SW,230,4.0,14.0,82,0.00,,,0.00,meteohub,2013-02-09 05:00:00,
2013-02-08 23:05:00,26.4,21.7,30.35,WSW,240,5.0,11.0,82,0.00,,,0.00,meteohub,2013-02-09 05:05:00,
2013-02-08 23:10:00,26.4,21.7,30.34,SW,235,6.0,14.0,82,0.00,,,0.00,meteohub,2013-02-09 05:10:00,
2013-02-08 23:15:00,26.4,21.7,30.34,WSW,248,6.0,14.0,82,0.00,,,0.00,meteohub,2013-02-09 05:15:00,
2013-02-08 23:20:00,26.4,21.7,30.34,WSW,246,6.0,14.0,82,0.00,,,0.00,meteohub,2013-02-09 05:20:00,
2013-02-08 23:25:00,26.4,21.7,30.35,WSW,248,7.0,12.0,82,0.00,,,0.00,meteohub,2013-02-09 05:25:00,
2013-02-08 23:30:00,26.4,21.7,30.35,SW,231,7.0,12.0,82,0.00,,,0.00,meteohub,2013-02-09 05:30:00,
2013-02-08 23:35:00,26.4,21.7,30.34,WSW,243,5.0,12.0,82,0.00,,,0.00,meteohub,2013-02-09 05:35:00,
2013-02-08 23:40:00,26.4,21.7,30.34,SW,236,3.0,11.0,82,0.00,,,0.00,meteohub,2013-02-09 05:40:00,
2013-02-08 23:45:00,26.4,21.7,30.34,WSW,248,10.0,11.0,82,0.00,,,0.00,meteohub,2013-02-09 05:45:00,
2013-02-08 23:50:00,26.4,21.7,30.34,SW,234,6.0,11.0,82,0.00,,,0.00,meteohub,2013-02-09 05:50:00,
2013-02-08 23:55:00,26.4,21.7,30.34,SW,232,4.0,11.0,82,0.00,,,0.00,meteohub,2013-02-09 05:55:00,